Detroit Metro, MI

2:50 AM EDT on May 23, 2018 (GMT -0400)
Detroit Metro Wayne County

Weather History for KDTW - July, 2013

Change the Weather History Date:

Saturday, July 27, 2013

  Actual Average Record
Temperature  
Mean Temperature 66 °F 74 °F  
Max Temperature 75 °F 83 °F 100 °F (1955)
Min Temperature 57 °F 64 °F 48 °F (1971)
Degree Days  
Heating Degree Days 0 0  
Month to date heating degree days 0 0  
Since 1 June heating degree days 23 35  
Since 1 July heating degree days 0 0  
Cooling Degree Days 1 9  
Month to date cooling degree days 284 240  
Year to date cooling degree days 557 455  
Since 1 June cooling degree days 454 407  
Growing Degree Days 18 (Base 50)    
Moisture  
Dew Point 62 °F    
Average Humidity 81    
Maximum Humidity 93    
Minimum Humidity 68    
Precipitation  
Precipitation 0.18 in 0.11 in 2.62 in (1896)
Month to date precipitation 4.04 2.90  
Year to date precipitation 24.90 18.96  
Snow  
Snow 0.00 in 0.00 in 0.00 in ()
Month to date snowfall 0.0 0.0  
Since 1 June snowfall 0.0 0.0  
Since 1 July snowfall 0.0 0.0  
Snow Depth 0.00 in    
Sea Level Pressure  
Sea Level Pressure 29.83 in    
Wind  
Wind Speed 10 mph (SSW)    
Max Wind Speed 22 mph    
Max Gust Speed 30 mph    
Visibility 8 miles    
Events Rain , Thunderstorm    
T = Trace of Precipitation, MM = Missing Value Source: NWS Daily Summary

Daily Weather History Graph

Daily Weather History Graph

Search for Another Location

Airport or City:

Astronomy

Jul. 27, 2013 Rise Set
Actual Time 6:21 AM EDT 8:57 PM EDT
Civil Twilight 5:49 AM EDT 9:29 PM EDT
Nautical Twilight 5:09 AM EDT 10:09 PM EDT
Astronomical Twilight 4:23 AM EDT 10:55 PM EDT
Moon 11:36 PM EDT (7/27) 12:08 PM EDT (7/27)
Length of Visible Light 15h 40m
Length of Day
14h 36m
Waning Gibbous, 71% of the Moon is Illuminated
Jul 27
Waning Gibbous
Jul 29
Last Quarter
Aug 6
New
Aug 14
First Quarter
Aug 20
Full

Hourly Weather History & Observations

Time (EDT) Temp. Dew Point Humidity Pressure Visibility Wind Dir Wind Speed Gust Speed Precip Events Conditions
12:53 AM 72.0 °F 60.1 °F 66% 29.91 in 10.0 mi Calm Calm - N/A   Overcast
1:53 AM 66.9 °F 63.0 °F 87% 29.91 in 6.0 mi West 6.9 mph - 0.02 in Rain Light Rain
2:53 AM 64.9 °F 62.1 °F 90% 29.90 in 9.0 mi WSW 6.9 mph - 0.02 in Rain Light Rain
3:53 AM 66.0 °F 63.0 °F 90% 29.88 in 10.0 mi SSW 6.9 mph - 0.00 in   Overcast
4:53 AM 66.0 °F 63.0 °F 90% 29.88 in 10.0 mi South 6.9 mph - N/A   Overcast
4:57 AM 66.2 °F 62.6 °F 88% 29.89 in 8.0 mi South 5.8 mph - 0.00 in Rain Light Rain
5:53 AM 66.0 °F 63.0 °F 90% 29.88 in 8.0 mi SSE 9.2 mph - 0.00 in   Overcast
6:53 AM 66.0 °F 62.1 °F 87% 29.88 in 9.0 mi South 8.1 mph - N/A   Overcast
7:53 AM 66.9 °F 62.1 °F 84% 29.88 in 9.0 mi South 9.2 mph - N/A   Overcast
8:53 AM 68.0 °F 63.0 °F 84% 29.87 in 10.0 mi South 9.2 mph - N/A   Overcast
9:53 AM 68.0 °F 63.0 °F 84% 29.86 in 9.0 mi South 11.5 mph - N/A   Overcast
10:24 AM 68.0 °F 62.6 °F 83% 29.86 in 7.0 mi South 10.4 mph - N/A   Overcast
10:53 AM 69.1 °F 64.0 °F 84% 29.85 in 7.0 mi South 9.2 mph - N/A   Overcast
11:53 AM 69.1 °F 64.0 °F 84% 29.83 in 7.0 mi South 6.9 mph - N/A   Overcast
12:53 PM 71.1 °F 64.0 °F 78% 29.81 in 5.0 mi South 11.5 mph - 0.00 in Rain Light Rain
1:09 PM 73.4 °F 64.4 °F 73% 29.81 in 6.0 mi South 12.7 mph - 0.00 in Rain Light Rain
1:49 PM 69.8 °F 64.4 °F 83% 29.81 in 7.0 mi SSE 15.0 mph - 0.00 in Rain Light Rain
1:53 PM 70.0 °F 64.0 °F 81% 29.81 in 6.0 mi SSE 15.0 mph - 0.00 in Rain Light Rain
2:13 PM 69.8 °F 64.4 °F 83% 29.80 in 6.0 mi SSE 12.7 mph - 0.00 in Rain Light Rain
2:41 PM 69.8 °F 64.4 °F 83% 29.80 in 6.0 mi South 11.5 mph - 0.00 in   Haze
2:50 PM 69.8 °F 64.4 °F 83% 29.79 in 8.0 mi South 13.8 mph - 0.00 in   Overcast
2:53 PM 70.0 °F 64.9 °F 84% 29.79 in 8.0 mi SSE 12.7 mph - 0.00 in   Overcast
3:48 PM 71.6 °F 64.4 °F 78% 29.78 in 8.0 mi South 11.5 mph - N/A   Overcast
3:53 PM 71.1 °F 64.0 °F 78% 29.78 in 8.0 mi South 12.7 mph - N/A   Overcast
4:31 PM 73.4 °F 66.2 °F 78% 29.77 in 10.0 mi South 9.2 mph - N/A   Mostly Cloudy
4:53 PM 75.0 °F 66.0 °F 73% 29.75 in 10.0 mi South 11.5 mph - N/A   Mostly Cloudy
5:53 PM 75.0 °F 64.0 °F 69% 29.75 in 10.0 mi South 11.5 mph - N/A   Mostly Cloudy
6:16 PM 71.6 °F 62.6 °F 73% 29.76 in 4.0 mi West 13.8 mph 29.9 mph 0.00 in Rain , Thunderstorm Thunderstorms and Rain
6:30 PM 66.2 °F 60.8 °F 83% 29.77 in 7.0 mi NW 4.6 mph 16.1 mph 0.14 in Thunderstorm Thunderstorm
6:33 PM 66.2 °F 60.8 °F 83% 29.78 in 10.0 mi WNW 4.6 mph - 0.14 in   Mostly Cloudy
6:53 PM 66.9 °F 61.0 °F 81% 29.77 in 10.0 mi West 8.1 mph - 0.14 in   Mostly Cloudy
7:37 PM 66.2 °F 62.6 °F 88% 29.80 in 10.0 mi West 6.9 mph - N/A   Mostly Cloudy
7:53 PM 66.9 °F 61.0 °F 81% 29.80 in 10.0 mi WNW 13.8 mph 21.9 mph N/A   Mostly Cloudy
8:10 PM 66.2 °F 59.0 °F 78% 29.81 in 10.0 mi West 16.1 mph 23.0 mph N/A   Mostly Cloudy
8:53 PM 64.0 °F 57.0 °F 78% 29.83 in 10.0 mi West 12.7 mph - N/A   Scattered Clouds
9:53 PM 63.0 °F 55.0 °F 75% 29.85 in 10.0 mi West 6.9 mph - N/A   Mostly Cloudy
10:53 PM 61.0 °F 53.1 °F 75% 29.86 in 10.0 mi West 9.2 mph - N/A   Scattered Clouds
11:53 PM 59.0 °F 50.0 °F 72% 29.86 in 10.0 mi WSW 10.4 mph - N/A   Scattered Clouds